Погода в Клиторпсе

Великобритания     53°33′37″N   0°02′12″E
темп.,
°C
ветер,
м/с
пор.,
м/с
влажн.,
%
обл.,
%
осадки,
мм/ч
давл.,
гПа
погр.,
м
2 марта, вт
вт200:00+2в23951 0.0 103366
03:00+3всв23962 0.0 103241
06:00+3всв23965 0.0 103129
09:00+6в34892 0.0 1031235
12:00+8в33762 0.0 1031364
15:00+8в33770 0.0 1030277
18:00+4в22910 0.0 103023
21:00+4вюв12910 0.0 103022
3 марта, ср
ср300:00+3с00900 0.0 103022
03:00+3сз11900 0.0 102822
06:00+3сз119043 0.0 102822
09:00+6сз008380 0.0 102886
12:00+9в117080 0.0 1028398
15:00+8св337895 0.0 1026186
18:00+6ссв358293 0.0 1025147
21:00+6ссв248767 0.0 1025171
4 марта, чт
чт400:00+4ссв479579 0.0 1024210
03:00+4ссв688583 0.0 1024665
06:00+4с588191 0.1 1024682
09:00+5ссв6979100 0.1 1025971
12:00+6с6976100 0.1 1026834
15:00+5ссв8107799 0.2 1026974
18:00+4ссв71071100 0.3 10271048
21:00+4ссв71067100 0.1 10291120
5 марта, пт
пт500:00+4ссв71067100 0.1 10301005
03:00+4ссв6967100 0.1 1030854
06:00+4ссв5867100 0.1 1032713
09:00+4ссв5765100 0.1 10331183
12:00+5ссв5664100 0.1 10341268
15:00+5с566197 0.1 10341312
18:00+2с357472 0.1 1035192
21:00+1ссз338123 0.0 1036136
6 марта, сб
сб600:000сз338516 0.0 103776
03:000зсз238033 0.0 103744
06:00−1з228043 0.0 103744
09:00+3зюз346836 0.0 1037278
12:00+6зюз345418 0.0 1037916
15:00+7зюз45550 0.0 1036969
18:00+3з33760 0.0 103543
21:00+1зюз34850 0.0 103580